Location: Unspecified
(48.7670°N, 0.0000°E)
Time: 13:18:13
(UTC+00:00)

Courier 1B Rocket - Visible Passes

Search period start: 24 June 2019 00:00
Search period end: 04 July 2019 00:00
Orbit: 920 x 1202 km, 28.2° (Epoch: 23 June)

Date Brightness Start Highest point End Pass type
(mag) Time Alt. Az. Time Alt. Az. Time Alt. Az.
27 Jun 7.0 02:33:11 10° S 02:34:49 11° SSE 02:36:27 10° SSE visible
29 Jun 6.9 02:23:35 12° S 02:25:33 13° S 02:28:32 10° SSE visible
30 Jun 7.0 01:26:04 11° SSE 01:26:04 11° SSE 01:27:19 10° SSE visible
30 Jun 6.9 03:13:37 10° SSW 03:17:00 14° S 03:20:17 10° SSE visible
01 Jul 6.8 02:14:58 14° S 02:16:17 14° S 02:19:51 10° SSE visible
02 Jul 7.0 01:17:34 12° SSE 01:17:34 12° SSE 01:19:02 10° SE visible
02 Jul 6.9 03:04:28 10° SW 03:07:43 13° S 03:10:54 10° SSE visible
03 Jul 6.8 02:06:41 14° S 02:07:00 15° S 02:10:44 10° SSE visible
